Regional Weather Roundup
Issued by NWS

Home | Current Version | Previous Version | Graphics & Text | Print | Product List | Glossary On
Versions: 1 2 3 4 5 6 7 8 9 10 11 12 13 14 15 16 17 18 19 20 21 22 23 24 25 26 27 28 29 30 31 32 33 34 35 36 37 38 39 40 41 42 43 44 45 46 47 48 49 50
000
ASUS43 KMKX 230814
RWRWI

WISCONSIN REGIONAL WEATHER ROUNDUP
NATIONAL WEATHER SERVICE MILWAUKEE/SULLIVAN WI
300 AM CDT SAT MAY 23 2015

NOTE: "FAIR" INDICATES FEW OR NO CLOUDS BELOW 12,000 FEET WITH NO
SIGNIFICANT WEATHER AND/OR OBSTRUCTIONS TO VISIBILITY.

WIZ001-002-006>008-014>016-023>028-230900-
NORTHWEST WISCONSIN

CITY           SKY/WX    TMP DP  RH WIND       PRES   REMARKS
SUPERIOR ARPT  CLEAR     35  33  92 S5        30.19S WCI  31
ASHLAND        CLEAR     47  37  68 W6        30.19R
HAYWARD        CLEAR     39  35  86 CALM      30.22S
SIREN          CLEAR     43  40  88 CALM      30.21S
CUMBERLAND     CLEAR     43  39  87 CALM      30.23R
RICE LAKE      CLEAR     44  42  91 CALM      30.24S
CHETEK         CLEAR     42  41  97 E3        30.23S
LADYSMITH      CLEAR     43  41  92 CALM      30.25S
EAU CLAIRE     NOT AVBL
MENOMONIE      CLEAR     48  43  81 CALM      30.23S
NEW RICHMOND   CLEAR     46  40  79 SE3       30.22S
OSCEOLA        CLEAR     45  41  85 CALM      30.24S
$$

WIZ003>005-009-010-017-018-230900-
NORTH CENTRAL WISCONSIN

CITY           SKY/WX    TMP DP  RH WIND       PRES   REMARKS
MANITOWISH WTR CLEAR     38  36  93 CALM      30.22S
ARBOR VITAE    CLEAR     42  36  79 CALM      30.23S
WOODRUFF       CLEAR     42  36  79 CALM      30.23S
RHINELANDER    CLEAR     36  33  89 CALM      30.24S
EAGLE RIVER    CLEAR     37  30  77 CALM      30.23R
LAND O LAKES   CLEAR     32  32  97 CALM      30.24R
PHILLIPS       CLEAR     38  37  93 CALM      30.23S
TOMAHAWK       CLEAR     34  32  92 CALM      30.25S
MEDFORD        CLEAR     40  37  89 CALM      30.24S
MERRILL        CLEAR     36  34  95 CALM      30.27R
$$

WIZ029-030-035-036-043>047-230900-
CENTRAL WISCONSIN

CITY           SKY/WX    TMP DP  RH WIND       PRES   REMARKS
WAUSAU         CLEAR     45  38  76 SE6       30.25R
MOSINEE        CLEAR     43  41  93 SE3       30.26S
MARSHFIELD     CLEAR     49  37  63 S3        30.25R
STEVENS POINT  CLEAR     45  37  73 CALM      30.27R
WAUPACA        CLEAR     48  34  57 CALM      30.27R
WAUTOMA        NOT AVBL
WISC RAPIDS    CLEAR     48  35  60 CALM      30.27R
CAMP DOUGLAS   CLEAR     39  39 100 E2        30.24S
$$

WIZ011>013-019>022-031-037>040-048>050-230900-
NORTHEAST WISCONSIN

CITY           SKY/WX    TMP DP  RH WIND       PRES   REMARKS
ANTIGO         CLEAR     40  34  77 CALM      30.26S
SHAWANO        CLEAR     43  37  78 CALM      30.27S
OCONTO         CLEAR     36  35  94 CALM      30.27R
STURGEON BAY   CLEAR     46  25  42 S6        30.30R
GREEN BAY      CLEAR     42  34  73 CALM      30.27S
MANITOWOC      NOT AVBL
APPLETON       CLEAR     45  30  57 S5        30.27S
CLINTONVILLE   CLEAR     41  36  81 CALM      30.27R
OSHKOSH        PTCLDY    48  30  49 SW6       30.27R
$$

WIZ032>034-041-042-053>061-230900-
SOUTHWEST WISCONSIN

CITY           SKY/WX    TMP DP  RH WIND       PRES   REMARKS
LA CROSSE      CLEAR     51  44  77 SE6       30.23S
SPARTA         CLEAR     39  38  96 CALM        N/A
VIROQUA        CLEAR     53  41  63 SE9G17    30.24S
BOSCOBEL       MOCLDY    48  44  86 CALM      30.26R
PRAIRIE DU CHI MOCLDY    51  46  80 E5        30.24R
PLATTEVILLE    CLOUDY    55  39  55 E8        30.26R
$$

WIZ056-057-062-063-064-067-068-230900-
SOUTH CENTRAL WISCONSIN

CITY           SKY/WX    TMP DP  RH WIND       PRES   REMARKS
REEDSBURG      PTCLDY    52  37  57 CALM      30.26R
BARABOO/DELLS  PTCLDY    51  32  48 S7        30.26R
LONE ROCK      NOT AVBL
MINERAL POINT  PTCLDY    52  36  54 SE8       30.26S
MADISON        PTCLDY    53  31  42 S7        30.28R
MIDDLETON      PTCLDY    54  28  37 S5        30.28S
WATERTOWN      CLEAR     41  33  74 CALM      30.28S
MONROE         CLEAR     48  34  57 SE8       30.27S
JANESVILLE     CLEAR     46  32  57 CALM      30.28S
$$

WIZ051-052-058>065-066-070>072-230900-
SOUTHEAST WISCONSIN

CITY           SKY/WX    TMP DP  RH WIND       PRES   REMARKS
MILWAUKEE      PTCLDY    48  30  49 SW6       30.29R
WAUKESHA       PTCLDY    46  28  49 S6        30.30R
MILWAUKEE/TIMM PTCLDY    45  28  53 CALM      30.29S
RACINE         MOCLDY    49  29  46 SW6       30.31R
BURLINGTON     PTCLDY    41  34  76 CALM      30.29S
KENOSHA        PTCLDY    45  34  65 SW3       30.29S
FOND DU LAC    PTCLDY    44  29  55 CALM      30.28R
SHEBOYGAN      PTCLDY    42  29  59 SW6       30.28S
WEST BEND      PTCLDY    48  27  43 CALM      30.28S
JUNEAU         CLEAR     46  29  52 S3        30.29S
$$

LSZ147-162-230900-
LAKE SUPERIOR

STATION/POSITION TIME  TEMP    WIND        PRES    WAVE
                       AIR SEA DIR/SP/G            HT/PER
                 (UTC) (F)     (DEG/KT/KT) (MB)    (FT/S)
W MID LAKE BUOY  0650   42 36  210/ 10/ 10   N/A     0
DEVILS ISLAND    0700   40     240/ 10/ 12   N/A
PORT WING        0700   41     160/  2/  3   N/A
SAXON HARBOR     0740   52     190/  2/  6   N/A
$$

LMZ867-665-643>646-230900-
LAKE MICHIGAN

STATION/POSITION TIME  TEMP    WIND        PRES    WAVE
                       AIR SEA DIR/SP/G            HT/PER
                 (UTC) (F)     (DEG/KT/KT) (MB)    (FT/S)
CHAMBERS ISLAND  0700   49     170/  6/ 11   N/A
N MID LAKE BUOY  0650   41 36  190/  6/  6   N/A     0
NORTHPORT PIER   0700   47     200/  4/  8   N/A
SISTER BAY       0717   43        CALM       N/A
KEWAUNEE LAKESHO 0700   45      CALM  /  2   N/A
SHEBOYGAN LAKESH 0700   52     230/ 11/ 13   N/A
PORT WASHINGTON  0740   50     260/  5/  6   N/A
ATWATER BUOY     0700   50 45  190/  6/  6   N/A
MILWAUKEE LAKESH 0700   53     220/  4/  5   N/A
S MID LAKE BUOY  0650   47 38  190/ 10/ 12   N/A     0
KENOSHA   LAKESH 0700   54     200/  6/  9   N/A
$$

TC  - TEMPERATURE IN CELSIUS
VSB - VISIBILITY IN STATUTE MILES
WCI - WIND CHILL INDEX
HX  - HEAT INDEX



USA.gov is the U.S. government's official web portal to all federal, state and local government web resources and services.